[[{"header":{"parameterUnit":"m.s-1","parameterCategory":1,"la1":30.2992,"la2":30.254,"lo1":-89.0895,"lo2":-89.0443,"dy":0.0025,"dx":0.0025,"nx":19,"ny":19,"refTime":"2026-05-07T21:00:00:Z","depth":0,"parameterNumber":2,"parameterNumberName":"U-component_of_WINDS"},"data":[0,0,0,-3.2331,-3.2334,-3.2425,-3.2425,-3.2562,-3.2563,0,0,0,0,0,0,0,0,0,0,0,-3.2316,-3.2318,-3.2331,-3.2334,-3.2425,-3.2425,-3.2562,-3.2563,0,0,0,0,0,0,0,0,0,0,0,-3.2316,-3.2317,-3.2319,-3.2334,-3.2425,-3.2425,-3.2561,-3.2485,0,0,0,0,0,0,0,0,0,0,-3.2393,-3.2391,-3.2317,-3.2319,-3.2335,-3.2425,-3.2425,-3.2481,-3.249,-3.2529,0,-3.2567,0,-3.2567,-3.2574,-3.2574,0,0,0,-3.2324,-3.2384,-3.2398,-3.2319,-3.2336,-3.2425,-3.2381,-3.2486,-3.2496,-3.254,-3.2569,-3.2573,-3.257,-3.2575,-3.2575,-3.2832,-3.2833,0,0,-3.2319,-3.2339,-3.2391,-3.2405,-3.2392,-3.2378,-3.2384,-3.2491,-3.2523,-3.2569,-3.2576,-3.2572,-3.2576,-3.2577,-3.283,-3.2832,0,0,0,-3.2311,-3.2336,-3.2347,-3.24,-3.2415,-3.2381,-3.2388,-3.2519,-3.252,-3.2577,-3.2574,-3.2576,-3.2578,-3.2828,-3.2831,-3.2931,0,0,0,-3.2308,-3.2331,-3.2345,-3.2358,-3.2413,-3.2468,-3.2413,-3.2513,-3.2524,-3.2573,-3.2577,-3.258,-3.2826,-3.2829,-3.2925,-3.2976,0,0,0,-3.2306,-3.2331,-3.2349,-3.2359,-3.2399,-3.2466,-3.2473,-3.2515,-3.2523,-3.2574,-3.258,-3.2825,-3.2829,-3.2919,-3.2966,-3.305,0,0,0,-3.231,-3.2436,-3.235,-3.249,-3.2399,-3.2527,-3.2472,-3.2567,-3.2623,-3.2577,-3.2827,-3.283,-3.2917,-3.296,-3.3044,-3.3125,-3.316,0,0,-3.2481,-3.2458,-3.2538,-3.2464,-3.2613,-3.2512,-3.2676,-3.2708,-3.2694,-3.2786,-3.2792,-3.2927,-3.2965,-3.3049,-3.335,-3.3378,0,0,0,-3.2598,-3.2657,-3.2692,-3.2746,-3.2774,-3.2802,-3.2807,-3.2819,-3.2896,-3.2746,-3.2979,-3.3001,-3.3049,-3.3087,-3.3111,-3.3151,-3.2848,-3.2848,-3.2848,-3.2869,-3.2844,-3.2976,-3.2963,-3.3016,-3.302,-3.3061,-3.3078,-3.3037,-3.3093,-3.3121,-3.3306,-3.3351,-3.3369,-3.3411,-3.316,-3.3161,-3.3161,-3.3161,-3.3116,-3.3195,-3.3138,-3.3246,-3.3219,-3.3308,-3.3317,-3.3285,-3.3364,-3.3283,-3.3324,-3.3239,-3.3401,-3.3437,-3.3169,-3.3167,-3.3167,-3.3166,-3.3165,-3.3292,-3.3325,-3.3337,-3.3414,-3.3476,-3.3457,-3.3536,-3.3509,-3.3483,-3.3524,-3.355,-3.3549,-3.3544,-3.3538,-3.3539,-3.354,-3.354,-3.3541,-3.3541,-3.3469,-3.3479,-3.355,-3.359,-3.3621,-3.3659,-3.3664,-3.3694,-3.372,-3.3694,-3.3694,-3.3649,-3.3421,-3.3365,-3.3551,-3.3549,-3.3548,-3.3547,-3.3546,-3.3731,-3.3667,-3.3776,-3.3808,-3.3852,-3.3916,-3.3879,-3.3943,-3.3963,-3.4003,-3.3948,-3.3785,-3.3759,-3.374,-3.3694,-3.3953,-3.3953,-3.3953,-3.3953,-3.388,-3.3864,-3.3969,-3.4021,-3.4069,-3.4047,-3.4171,-3.4175,-3.417,-3.4181,-3.4139,-3.4075,-3.4056,-3.4042,-3.4016,-3.3972,-3.4297,-3.4297,-3.4298,-3.404,-3.4027,-3.4138,-3.4132,-3.4165,-3.4194,-3.4309,-3.4371,-3.4351,-3.4311,-3.419,-3.4175,-3.4071,-3.4038,-3.3996,-3.3957,-3.3876,0,0]},{"header":{"parameterUnit":"m.s-1","parameterCategory":1,"la1":30.2992,"la2":30.254,"lo1":-89.0895,"lo2":-89.0443,"dy":0.0025,"dx":0.0025,"nx":19,"ny":19,"refTime":"2026-05-07T21:00:00:Z","depth":0,"parameterNumber":3,"parameterNumberName":"V-component_of_WINDS"},"data":[0,0,0,-2.9631,-2.9633,-2.9711,-2.9711,-2.9817,-2.9818,0,0,0,0,0,0,0,0,0,0,0,-2.9613,-2.9613,-2.9631,-2.9633,-2.9711,-2.9711,-2.9817,-2.9818,0,0,0,0,0,0,0,0,0,0,0,-2.9612,-2.9613,-2.9614,-2.9633,-2.9711,-2.9711,-2.9816,-2.9755,0,0,0,0,0,0,0,0,0,0,-2.9678,-2.9666,-2.9613,-2.9614,-2.9634,-2.9711,-2.9711,-2.9752,-2.9759,-2.9784,0,-2.9809,0,-2.9815,-2.9825,-2.9826,0,0,0,-2.9629,-2.9661,-2.9677,-2.9615,-2.9635,-2.9711,-2.9675,-2.9756,-2.9764,-2.9793,-2.981,-2.9814,-2.9817,-2.9826,-2.9827,-2.9986,-2.9986,0,0,-2.9625,-2.9629,-2.9672,-2.9683,-2.9672,-2.9672,-2.9677,-2.976,-2.9779,-2.9811,-2.9816,-2.9819,-2.9827,-2.9828,-2.9985,-2.9986,0,0,0,-2.9615,-2.9626,-2.9641,-2.9678,-2.9692,-2.9675,-2.968,-2.9775,-2.978,-2.9817,-2.982,-2.9827,-2.9829,-2.9984,-2.9985,-3.0033,0,0,0,-2.9612,-2.962,-2.9639,-2.9642,-2.9691,-2.9735,-2.9693,-2.9774,-2.9783,-2.9819,-2.9827,-2.983,-2.9983,-2.9984,-3.003,-3.0056,0,0,0,-2.9606,-2.9619,-2.9632,-2.9642,-2.9676,-2.9733,-2.9742,-2.9776,-2.9785,-2.9826,-2.983,-2.9982,-2.9984,-3.0027,-3.005,-3.0098,0,0,0,-2.96,-2.9675,-2.9633,-2.9718,-2.9675,-2.9763,-2.9742,-2.9807,-2.9848,-2.9828,-2.9983,-2.9985,-3.0026,-3.0047,-3.0094,-3.0138,-3.0156,0,0,-2.9697,-2.9687,-2.9736,-2.9701,-2.9797,-2.9751,-2.9854,-2.9888,-2.9888,-2.9953,-2.9957,-3.0031,-3.005,-3.0097,-3.0261,-3.0276,0,0,0,-2.9768,-2.9803,-2.9828,-2.9867,-2.9895,-2.992,-2.9938,-2.995,-3.0005,-2.9922,-3.0061,-3.0072,-3.01,-3.012,-3.0133,-3.0155,-2.9995,-2.9995,-2.9994,-2.991,-2.9906,-2.9987,-2.9992,-3.003,-3.0047,-3.0077,-3.0097,-3.0082,-3.0115,-3.0134,-3.0234,-3.0258,-3.0267,-3.0291,-3.0157,-3.0157,-3.0157,-3.0158,-3.005,-3.0099,-3.0077,-3.0147,-3.0142,-3.0201,-3.022,-3.0207,-3.026,-3.0219,-3.0243,-3.0198,-3.0284,-3.0304,-3.0161,-3.016,-3.016,-3.016,-3.0159,-3.0142,-3.0164,-3.0178,-3.0234,-3.0277,-3.0279,-3.0331,-3.0325,-3.032,-3.0343,-3.0362,-3.0361,-3.0359,-3.0353,-3.0353,-3.0353,-3.0354,-3.0354,-3.0354,-3.0231,-3.0245,-3.029,-3.0325,-3.0349,-3.0379,-3.0396,-3.0419,-3.0443,-3.0434,-3.0434,-3.0415,-3.0293,-3.0262,-3.036,-3.0359,-3.0358,-3.0357,-3.0357,-3.0373,-3.034,-3.0409,-3.0433,-3.0473,-3.0515,-3.0507,-3.0554,-3.0572,-3.0597,-3.0573,-3.0485,-3.0474,-3.0464,-3.0438,-3.0575,-3.0575,-3.0575,-3.0575,-3.045,-3.0444,-3.0513,-3.0551,-3.0588,-3.0587,-3.0664,-3.0677,-3.0686,-3.0697,-3.0676,-3.0642,-3.0632,-3.0627,-3.0613,-3.0589,-3.0761,-3.0761,-3.0761,-3.0536,-3.0534,-3.0601,-3.0609,-3.064,-3.0666,-3.0738,-3.0781,-3.0784,-3.0769,-3.0705,-3.0697,-3.0641,-3.0623,-3.0605,-3.0584,-3.054,0,0]}]]